[[{"header":{"parameterUnit":"m.s-1","parameterCategory":1,"la1":30.2991,"la2":30.254,"lo1":-89.0895,"lo2":-89.0444,"dy":0.0017,"dx":0.0017,"nx":28,"ny":28,"refTime":"2025-11-15T03:00:00:Z","depth":0,"parameterNumber":2,"parameterNumberName":"U-component_of_WINDS"},"data":[0,0,0,0,0,0,0,0,0,0,0,0,0,0,0,0,0,0,0,0,0,0,0,0,0,0,0,0,0,0,0,0,0,0,0,0,0,0,0,0,0,0,0,0,0,0,0,0,0,0,0,0,0,0,0,0,0,0,2.9304,2.9306,0,2.9428,2.943,2.9431,2.949,2.949,2.949,2.949,2.962,2.9624,2.9627,0,0,0,0,0,0,0,0,0,0,0,0,0,2.9124,2.9127,2.9304,2.9306,2.9307,2.9428,2.943,2.9432,2.949,2.949,2.949,2.949,2.9619,2.9623,2.9627,0,0,0,0,0,0,0,0,0,0,0,0,0,2.9221,2.9128,2.9304,2.9351,2.9356,2.9428,2.943,2.9432,2.949,2.949,2.949,2.949,2.9618,2.9623,2.9628,2.9663,0,0,2.9644,2.9647,0,0,0,0,0,0,0,0,2.9215,2.9227,2.9342,2.9348,2.9354,2.9444,2.9414,2.951,2.949,2.9439,2.949,2.949,2.9562,2.9572,2.9595,2.9669,2.9675,2.9645,2.9648,2.965,2.9652,0,0,0,0,0,0,0,2.9208,2.9222,2.9353,2.9344,2.9351,2.9368,2.9382,2.9433,2.95,2.9444,2.9448,2.9462,2.9565,2.959,2.9599,2.9677,2.9645,2.9649,2.9653,2.9655,2.9791,2.9791,0,0,0,0,0,0,2.9193,2.9216,2.935,2.9357,2.9283,2.9371,2.9387,2.9415,2.9499,2.9512,2.9462,2.9464,2.9581,2.9592,2.9604,2.9653,2.965,2.9655,2.9658,2.979,2.9791,2.9791,0,0,0,0,0,0,2.9189,2.9205,2.9345,2.9288,2.9307,2.9374,2.9406,2.9418,2.9443,2.9513,2.9526,2.9475,2.9581,2.9596,2.9649,2.9658,2.9658,2.9662,2.979,2.9791,2.9791,2.975,0,0,0,0,0,0,2.9184,2.9203,2.9215,2.9288,2.931,2.9385,2.9407,2.942,2.9451,2.9455,2.9529,2.9541,2.9582,2.964,2.9654,2.9665,2.9666,2.9789,2.979,2.9791,2.9751,2.9749,2.9748,0,0,0,0,0,2.9177,2.9198,2.9215,2.9231,2.9326,2.9386,2.9398,2.9445,2.9452,2.9466,2.9512,2.9538,2.9655,2.9645,2.9661,2.9674,2.9789,2.979,2.9791,2.9751,2.9749,2.9748,0,0,0,0,0,0,2.9124,2.9208,2.9228,2.9273,2.9322,2.9395,2.9414,2.9441,2.9489,2.9491,2.9549,2.9565,2.9613,2.9649,2.9637,2.9715,2.9725,2.9729,2.9689,2.9688,2.9687,2.9677,2.9671,0,0,0,0,0,2.9118,2.9157,2.9229,2.9262,2.9285,2.9346,2.9373,2.9405,2.9459,2.948,2.953,2.9582,2.9631,2.9661,2.971,2.9757,2.9776,2.9774,2.9773,2.9771,2.9774,2.9805,2.9807,2.9795,2.9795,2.9795,0,0,2.9104,2.9155,2.9177,2.9253,2.9294,2.9337,2.9362,2.9405,2.9438,2.9487,2.954,2.9578,2.9641,2.9691,2.9716,2.9723,2.9782,2.9772,2.977,2.9774,2.9807,2.9808,2.9809,2.9795,2.9795,2.9795,0,0,2.9102,2.9143,2.9177,2.9219,2.9282,2.9323,2.9331,2.9402,2.9429,2.9483,2.9522,2.9563,2.9645,2.9689,2.9722,2.9742,2.9769,2.9757,2.9748,2.9778,2.9779,2.9781,2.979,2.9793,2.9759,2.9759,2.9759,0,2.9078,2.9141,2.9191,2.9232,2.9266,2.9313,2.9349,2.9388,2.9464,2.9487,2.9494,2.9601,2.9646,2.9709,2.9715,2.9739,2.9753,2.9748,2.9775,2.9777,2.9779,2.9788,2.9792,2.9757,2.9758,2.9758,2.9758,0,2.911,2.9154,2.9174,2.9246,2.9282,2.9321,2.9379,2.941,2.9441,2.9482,2.9539,2.9595,2.9658,2.9675,2.9705,2.9745,2.9747,2.9763,2.9774,2.9777,2.9787,2.9791,2.9755,2.9755,2.9756,2.9756,0,0,2.9074,2.9177,2.9183,2.9219,2.9294,2.933,2.9373,2.9434,2.9461,2.9513,2.9552,2.9623,2.964,2.9678,2.9713,2.974,2.9756,2.9754,2.9756,2.9754,2.9807,2.9794,2.9797,2.9775,2.9775,2.9776,2.9802,0,2.9084,2.916,2.9209,2.9267,2.931,2.9358,2.9396,2.9448,2.9488,2.9533,2.9579,2.9629,2.9646,2.967,2.9698,2.9747,2.9767,2.9746,2.9814,2.9816,2.9797,2.9802,2.9789,2.981,2.9806,2.9807,2.9807,0,2.9103,2.9155,2.9218,2.9292,2.9312,2.9345,2.9407,2.9448,2.951,2.9538,2.9582,2.9619,2.967,2.9677,2.975,2.9734,2.9766,2.9795,2.9797,2.9805,2.9811,2.9812,2.9818,2.9821,2.9814,2.9813,2.9813,0,2.9074,2.9159,2.9209,2.9237,2.9325,2.9347,2.9385,2.9447,2.9482,2.9537,2.9561,2.9622,2.9655,2.9703,2.9757,2.9757,2.9825,2.9836,2.9852,2.985,2.9863,2.9862,2.9875,2.9882,2.9882,2.9882,2.9882,0,2.9079,2.9116,2.9197,2.9227,2.9272,2.9329,2.9372,2.9414,2.9469,2.9511,2.9557,2.9595,2.9664,2.9712,2.9755,2.981,2.9824,2.985,2.9861,2.9847,2.9843,2.9868,2.9868,2.9883,2.9883,2.9882,2.9882,0,2.9052,2.9108,2.9165,2.9245,2.9266,2.9295,2.9364,2.9398,2.9442,2.9495,2.9511,2.9581,2.9641,2.9699,2.9779,2.9808,2.9864,2.9878,2.9842,2.9849,2.9862,2.986,2.9891,2.99,2.99,2.99,2.9899,0,2.9052,2.9082,2.9165,2.9196,2.9233,2.9282,2.9319,2.9378,2.9415,2.949,2.9515,2.9578,2.9631,2.9725,2.9785,2.9847,2.9864,2.9871,2.9874,2.9859,2.9867,2.9865,2.9869,2.9869,2.9869,2.9869,2.9868,0,2.9046,2.9074,2.9124,2.9185,2.9228,2.9279,2.9332,2.9356,2.9426,2.9466,2.9527,2.9569,2.9652,2.9715,2.9785,2.9827,2.9861,2.9868,2.9875,2.986,2.9839,2.9853,2.9839,2.9866,2.9866,2.9867,2.9867,2.9867,2.9034,2.9064,2.9129,2.9185,2.9231,2.9281,2.9317,2.9367,2.9419,2.9491,2.9524,2.9586,2.9652,2.975,2.9792,2.9844,2.9853,2.9862,2.9865,2.9867,2.9865,2.9831,2.9857,2.9857,2.9857,2.9858,2.9858,0,2.9032,2.9077,2.9128,2.9202,2.9247,2.9275,2.9336,2.9373,2.9427,2.9485,2.9538,2.9611,2.9674,2.974,2.9807,2.9836,2.9854,2.9852,2.9851,2.9861,2.9852,2.984,2.9837,2.9837,2.9837,2.9837,2.9837,2.9837,2.9037,2.909,2.9126,2.9205,2.925,2.9311,2.9345,2.9392,2.9439,2.9518,2.9571,2.9614,2.9677,2.975,2.981,2.9828,2.9852,2.9846,2.9869,2.9859,2.9861,2.9862,2.9851,2.985,2.985,2.9873,2.9873,2.9873]},{"header":{"parameterUnit":"m.s-1","parameterCategory":1,"la1":30.2991,"la2":30.254,"lo1":-89.0895,"lo2":-89.0444,"dy":0.0017,"dx":0.0017,"nx":28,"ny":28,"refTime":"2025-11-15T03:00:00:Z","depth":0,"parameterNumber":3,"parameterNumberName":"V-component_of_WINDS"},"data":[0,0,0,0,0,0,0,0,0,0,0,0,0,0,0,0,0,0,0,0,0,0,0,0,0,0,0,0,0,0,0,0,0,0,0,0,0,0,0,0,0,0,0,0,0,0,0,0,0,0,0,0,0,0,0,0,0,0,0.4103,0.4103,0,0.4121,0.4121,0.4121,0.4104,0.4104,0.4103,0.4102,0.4122,0.4123,0.4124,0,0,0,0,0,0,0,0,0,0,0,0,0,0.4053,0.4054,0.4103,0.4103,0.4103,0.4121,0.4121,0.4121,0.4105,0.4104,0.4103,0.4102,0.4122,0.4123,0.4124,0,0,0,0,0,0,0,0,0,0,0,0,0,0.4073,0.4054,0.4103,0.4097,0.4097,0.4121,0.4121,0.4121,0.4105,0.4104,0.4103,0.4102,0.4121,0.4123,0.4125,0.4156,0,0,0.413,0.4131,0,0,0,0,0,0,0,0,0.4072,0.4075,0.4098,0.4097,0.4097,0.4109,0.4111,0.4133,0.4105,0.4102,0.4102,0.4101,0.4119,0.4121,0.4126,0.4157,0.4158,0.413,0.4131,0.4132,0.4132,0,0,0,0,0,0,0,0.4071,0.4074,0.411,0.4098,0.4098,0.4093,0.4095,0.4115,0.4116,0.4102,0.4101,0.4103,0.4118,0.4125,0.4127,0.4158,0.413,0.4132,0.4133,0.4133,0.4212,0.4213,0,0,0,0,0,0,0.407,0.4073,0.4109,0.4111,0.4082,0.4095,0.4097,0.4106,0.4116,0.4116,0.4104,0.4102,0.4122,0.4125,0.4127,0.4163,0.4132,0.4134,0.4135,0.4211,0.4212,0.4213,0,0,0,0,0,0,0.4069,0.4073,0.4109,0.4092,0.4096,0.4097,0.4108,0.4107,0.4114,0.4117,0.4117,0.411,0.4121,0.4125,0.4148,0.4163,0.4134,0.4136,0.421,0.4211,0.4213,0.4235,0,0,0,0,0,0,0.4068,0.4073,0.4085,0.4092,0.4097,0.413,0.4109,0.4108,0.4116,0.4114,0.4123,0.4123,0.4121,0.4146,0.415,0.4165,0.4137,0.4208,0.421,0.4212,0.4233,0.4237,0.4241,0,0,0,0,0,0.4066,0.4092,0.4086,0.4091,0.4112,0.4131,0.4133,0.413,0.4118,0.413,0.4131,0.4123,0.4161,0.4148,0.4153,0.4169,0.4207,0.421,0.4212,0.4231,0.4236,0.4241,0,0,0,0,0,0,0.4088,0.4093,0.4086,0.4115,0.4122,0.4128,0.4143,0.4136,0.4147,0.4145,0.414,0.4142,0.4166,0.417,0.4156,0.4198,0.4182,0.4186,0.4195,0.42,0.4204,0.4203,0.4139,0,0,0,0,0,0.4096,0.4111,0.4114,0.4139,0.4143,0.4142,0.415,0.4147,0.4154,0.4157,0.4161,0.4169,0.4182,0.4191,0.4204,0.4233,0.4234,0.4246,0.425,0.4253,0.4256,0.427,0.4275,0.4221,0.4221,0.4221,0,0,0.4114,0.4118,0.4128,0.4144,0.4149,0.4164,0.4145,0.4162,0.4173,0.416,0.4182,0.4185,0.4193,0.4219,0.423,0.4222,0.4271,0.4256,0.4259,0.426,0.4273,0.4278,0.4283,0.4223,0.4222,0.4222,0,0,0.4153,0.4158,0.4178,0.4183,0.4191,0.4189,0.4194,0.42,0.4201,0.4222,0.4212,0.4225,0.4249,0.4254,0.426,0.4298,0.429,0.4302,0.4323,0.4336,0.4341,0.4344,0.4357,0.4362,0.4305,0.4305,0.4305,0,0.4173,0.4195,0.419,0.4207,0.4213,0.4201,0.4221,0.4226,0.4238,0.4243,0.4233,0.4261,0.4266,0.4292,0.4301,0.4306,0.4311,0.4302,0.4341,0.4344,0.4348,0.4359,0.4364,0.4307,0.4307,0.4306,0.4306,0,0.422,0.4235,0.425,0.426,0.4269,0.4288,0.4284,0.4293,0.4288,0.4287,0.4308,0.4313,0.4326,0.4331,0.4327,0.4356,0.4351,0.4341,0.4325,0.4354,0.4365,0.437,0.4309,0.4308,0.4308,0.4307,0,0,0.4275,0.428,0.4286,0.4289,0.4295,0.4307,0.4324,0.4335,0.4342,0.435,0.4364,0.4383,0.4373,0.4379,0.4375,0.4387,0.4415,0.4376,0.4376,0.4382,0.4446,0.4453,0.4458,0.4409,0.441,0.4411,0.4445,0,0.4314,0.4343,0.4337,0.4366,0.4379,0.4366,0.438,0.4385,0.4385,0.4395,0.4395,0.4408,0.4395,0.4398,0.4409,0.4409,0.4428,0.4407,0.4422,0.4422,0.442,0.4464,0.4472,0.4504,0.4449,0.445,0.445,0,0.4363,0.4371,0.4401,0.4402,0.4408,0.4421,0.4429,0.444,0.4445,0.4443,0.4449,0.4442,0.4458,0.4441,0.4462,0.4448,0.4454,0.4454,0.4455,0.4457,0.4438,0.4466,0.4514,0.4519,0.4457,0.4457,0.4456,0,0.44,0.4418,0.4437,0.4441,0.4443,0.4453,0.4454,0.4458,0.4464,0.4471,0.4475,0.4485,0.449,0.4497,0.4492,0.448,0.4514,0.4497,0.4512,0.4512,0.4521,0.452,0.457,0.4524,0.4524,0.4524,0.4524,0,0.4443,0.4462,0.4453,0.4465,0.4485,0.4477,0.4497,0.4497,0.4499,0.4511,0.45,0.4511,0.4504,0.4514,0.451,0.4527,0.453,0.4529,0.4528,0.453,0.453,0.4533,0.4531,0.4526,0.4525,0.4525,0.4525,0,0.4488,0.4483,0.4503,0.4503,0.4503,0.4518,0.4517,0.4528,0.4525,0.454,0.4543,0.4539,0.455,0.4545,0.4557,0.4555,0.4577,0.4573,0.4575,0.4574,0.4589,0.4588,0.4643,0.4649,0.46,0.4601,0.4601,0,0.4516,0.4529,0.453,0.4536,0.4538,0.4549,0.4554,0.4547,0.4553,0.4558,0.4567,0.4577,0.4584,0.4602,0.46,0.4609,0.4605,0.4623,0.4606,0.4607,0.4604,0.4603,0.4604,0.4627,0.4628,0.4628,0.4629,0,0.4566,0.4562,0.4571,0.4577,0.4584,0.459,0.4594,0.46,0.4592,0.4599,0.461,0.4615,0.4626,0.4635,0.4642,0.4643,0.4634,0.4634,0.4638,0.464,0.464,0.4639,0.4584,0.4633,0.4632,0.4632,0.4632,0.4632,0.4603,0.4613,0.4615,0.4624,0.4626,0.4629,0.4639,0.4636,0.4645,0.4652,0.4647,0.4659,0.4661,0.4669,0.4671,0.468,0.4672,0.4678,0.468,0.4681,0.4683,0.4639,0.4681,0.4681,0.4681,0.4681,0.4681,0,0.4652,0.4651,0.4659,0.4665,0.4671,0.4661,0.4665,0.4671,0.4681,0.4684,0.469,0.4701,0.4709,0.4707,0.4714,0.4722,0.4717,0.4724,0.4723,0.4723,0.469,0.4685,0.4727,0.4727,0.4727,0.4727,0.4727,0.4727,0.4678,0.4695,0.469,0.4707,0.4707,0.4717,0.472,0.4723,0.4724,0.4736,0.4743,0.4741,0.4741,0.4748,0.4754,0.4753,0.4756,0.4764,0.4762,0.473,0.4726,0.4721,0.4717,0.4765,0.4765,0.4794,0.4794,0.4795]}]]